Date String (YYYY-MM-DD hh:mm:ss) UTC,Instrument flags,Ambient pressure (hPa),Sample flow (lpm),Bypass flow (lpm),Sample temperature (°C),Ambient temperature (°C),ASC tube jacket temperature (°C),LED temperature (°C),Box temperature (°C),Sample RH (%),Span deviation,Mass concentration (μg/m³),Mass concentration (μg/m³),Mass concentration (μg/m³)
DateTimeUTC,F1_M11,P_M11,Q1_M11,Q2_M11,T1_M11,T2_M11,T3_M11,T4_M11,T5_M11,U1_M11,ZSPAN_M11,X0_M11,X2_M11,X1_M11
2022-06-06 00:00:00,,0819.1,4.99,0.00,29.1,27.8,00.0,37.9,31.0,23.4,0000.0,0010.28,0003.31,0001.60
2022-06-06 00:01:00,,0819.1,5.00,0.00,29.1,28.0,00.0,37.9,31.1,23.6,0000.0,0010.93,0003.39,0001.71
2022-06-06 00:02:00,,0819.2,5.01,0.00,29.1,28.1,00.0,37.9,31.1,23.4,0000.0,0012.42,0003.50,0001.83
2022-06-06 00:03:00,,0819.3,5.00,0.00,29.2,28.2,00.0,37.9,31.2,23.3,0000.0,0012.54,0003.68,0001.96
2022-06-06 00:04:00,,0819.3,5.00,0.00,29.2,28.3,00.0,38.0,31.2,23.6,0000.0,0012.82,0003.80,0002.12
2022-06-06 00:05:00,,0819.2,5.01,0.00,29.3,28.4,00.0,38.0,31.3,23.9,0000.0,0012.79,0003.89,0002.27
2022-06-06 00:06:00,,0819.2,5.00,0.00,29.3,28.5,00.0,38.0,31.3,24.1,0000.0,0013.46,0004.01,0002.42
2022-06-06 00:07:00,,0819.2,5.00,0.00,29.3,28.6,00.0,38.0,31.4,23.8,0000.0,0013.76,0004.13,0002.54
2022-06-06 00:08:00,,0819.2,4.99,0.00,29.4,28.4,00.0,38.0,31.3,24.3,0000.0,0013.83,0004.24,0002.66
2022-06-06 00:09:00,,0819.2,4.99,0.00,29.3,27.7,00.0,38.0,31.1,24.0,0000.0,0013.95,0004.39,0002.80
2022-06-06 00:10:00,,0819.3,5.00,0.00,29.3,27.4,00.0,38.0,31.0,24.4,0000.0,0013.68,0004.42,0002.84
2022-06-06 00:11:00,,0819.3,5.01,0.00,29.2,27.4,00.0,38.0,31.0,24.5,0000.0,0013.72,0004.42,0002.84
2022-06-06 00:12:00,,0819.4,5.00,0.00,29.2,27.4,00.0,38.0,31.0,24.3,0000.0,0013.80,0004.45,0002.86
2022-06-06 00:13:00,,0819.4,4.99,0.00,29.2,27.5,00.0,38.0,31.0,24.9,0000.0,0013.45,0004.49,0002.85
2022-06-06 00:14:00,,0819.4,4.99,0.00,29.2,27.7,00.0,38.0,31.1,24.7,0000.0,0013.16,0004.42,0002.83
2022-06-06 00:15:00,,0819.4,5.01,0.00,29.2,27.8,00.0,38.0,31.1,24.2,0000.0,0013.59,0004.44,0002.82
2022-06-06 00:16:00,,0819.4,5.00,0.00,29.2,28.0,00.0,38.0,31.2,24.5,0000.0,0013.47,0004.44,0002.80
2022-06-06 00:17:00,,0819.4,5.00,0.00,29.2,28.1,00.0,38.0,31.2,24.0,0000.0,0013.65,0004.46,0002.80
2022-06-06 00:18:00,,0819.3,5.00,0.00,29.3,28.2,00.0,38.0,31.2,23.9,0000.0,0013.98,0004.53,0002.83
2022-06-06 00:19:00,,0819.3,5.00,0.00,29.3,28.3,00.0,38.1,31.3,23.5,0000.0,0014.68,0004.59,0002.86
2022-06-06 00:20:00,,0819.2,5.01,0.00,29.3,28.4,00.0,38.1,31.3,23.6,0000.0,0014.73,0004.56,0002.85
2022-06-06 00:21:00,,0819.1,4.99,0.00,29.4,28.5,00.0,38.1,31.4,23.6,0000.0,0014.78,0004.63,0002.87
2022-06-06 00:22:00,,0819.2,5.00,0.00,29.4,28.3,00.0,38.1,31.3,23.7,0000.0,0014.43,0004.59,0002.85
2022-06-06 00:23:00,,0819.2,5.01,0.00,29.4,27.5,00.0,38.0,31.2,23.8,0000.0,0013.94,0004.58,0002.84
2022-06-06 00:24:00,,0819.2,4.99,0.00,29.3,27.3,00.0,38.0,31.1,23.8,0000.0,0014.21,0004.54,0002.83
2022-06-06 00:25:00,,0819.1,5.01,0.00,29.2,27.3,00.0,38.0,31.0,23.7,0000.0,0015.00,0004.60,0002.84
2022-06-06 00:26:00,,0819.1,5.00,0.00,29.2,27.4,00.0,38.0,31.0,23.7,0000.0,0014.35,0004.60,0002.83
2022-06-06 00:27:00,,0819.2,4.99,0.00,29.2,27.5,00.0,38.0,31.0,23.8,0000.0,0014.41,0004.64,0002.82
2022-06-06 00:28:00,,0819.2,5.00,0.00,29.2,27.7,00.0,38.0,31.1,23.6,0000.0,0014.08,0004.65,0002.79
2022-06-06 00:29:00,,0819.2,5.01,0.00,29.2,27.8,00.0,38.0,31.1,24.2,0000.0,0013.78,0004.58,0002.75
2022-06-06 00:30:00,,0819.3,5.00,0.00,29.2,27.9,00.0,38.0,31.2,23.4,0000.0,0012.97,0004.51,0002.74
2022-06-06 00:31:00,,0819.4,4.98,0.00,29.3,28.1,00.0,38.1,31.2,23.7,0000.0,0013.00,0004.53,0002.73
2022-06-06 00:32:00,,0819.4,5.01,0.00,29.3,28.2,00.0,38.1,31.2,23.8,0000.0,0013.41,0004.51,0002.73
2022-06-06 00:33:00,,0819.5,5.01,0.00,29.3,28.3,00.0,38.1,31.3,23.6,0000.0,0013.19,0004.46,0002.71
2022-06-06 00:34:00,,0819.7,4.99,0.00,29.3,28.4,00.0,38.1,31.3,23.6,0000.0,0012.99,0004.45,0002.71
2022-06-06 00:35:00,,0819.8,5.00,0.00,29.4,28.5,00.0,38.1,31.4,23.4,0000.0,0011.98,0004.38,0002.70
2022-06-06 00:36:00,,0819.9,4.99,0.00,29.4,28.5,00.0,38.1,31.4,23.2,0000.0,0010.64,0004.34,0002.70
2022-06-06 00:37:00,,0819.9,5.02,0.00,29.4,27.7,00.0,38.1,31.2,23.5,0000.0,0010.24,0004.24,0002.66
2022-06-06 00:38:00,,0820.0,5.00,0.00,29.3,27.3,00.0,38.0,31.1,23.4,0000.0,0009.96,0004.15,0002.65
2022-06-06 00:39:00,,0820.2,4.99,0.00,29.3,27.2,00.0,38.0,31.0,23.4,0000.0,0009.79,0004.11,0002.68
2022-06-06 00:40:00,,0820.3,5.01,0.00,29.2,27.3,00.0,38.0,31.0,23.5,0000.0,0009.68,0004.12,0002.70
2022-06-06 00:41:00,,0820.5,4.99,0.00,29.2,27.4,00.0,38.0,31.0,23.7,0000.0,0009.83,0004.17,0002.72
2022-06-06 00:42:00,,0820.5,5.00,0.00,29.2,27.6,00.0,38.0,31.0,24.5,0000.0,0010.62,0004.19,0002.73
2022-06-06 00:43:00,,0820.6,5.00,0.00,29.2,27.7,00.0,38.0,31.1,24.7,0000.0,0010.30,0004.20,0002.76
2022-06-06 00:44:00,,0820.7,5.01,0.00,29.2,27.9,00.0,38.1,31.1,25.2,0000.0,0010.51,0004.24,0002.81
2022-06-06 00:45:00,,0820.8,5.00,0.00,29.2,28.0,00.0,38.1,31.2,25.6,0000.0,0010.34,0004.21,0002.82
2022-06-06 00:46:00,,0820.9,5.00,0.00,29.3,28.1,00.0,38.1,31.2,25.0,0000.0,0010.30,0004.26,0002.85
2022-06-06 00:47:00,,0820.9,4.99,0.00,29.3,28.2,00.0,38.1,31.2,24.1,0000.0,0010.52,0004.33,0002.87
2022-06-06 00:48:00,,0821.0,5.00,0.00,29.3,28.3,00.0,38.1,31.3,24.9,0000.0,0010.70,0004.38,0002.93
2022-06-06 00:49:00,,0820.9,5.01,0.00,29.3,28.3,00.0,38.1,31.3,25.3,0000.0,0010.95,0004.46,0002.98
2022-06-06 00:50:00,,0820.8,5.01,0.00,29.4,28.4,00.0,38.1,31.3,24.9,0000.0,0011.17,0004.52,0003.00
2022-06-06 00:51:00,,0820.6,5.00,0.00,29.4,28.4,00.0,38.1,31.3,24.5,0000.0,0011.46,0004.58,0003.05
2022-06-06 00:52:00,,0820.6,4.99,0.00,29.4,27.7,00.0,38.1,31.2,24.5,0000.0,0011.86,0004.58,0003.06
2022-06-06 00:53:00,,0820.5,5.01,0.00,29.3,27.2,00.0,38.0,31.0,25.0,0000.0,0011.21,0004.55,0003.08
2022-06-06 00:54:00,,0820.6,4.99,0.00,29.2,27.1,00.0,38.0,31.0,25.6,0000.0,0010.93,0004.54,0003.09
2022-06-06 00:55:00,,0820.5,5.00,0.00,29.2,27.2,00.0,38.0,31.0,25.3,0000.0,0010.98,0004.61,0003.13
2022-06-06 00:56:00,,0820.5,4.99,0.00,29.2,27.3,00.0,38.0,31.0,24.3,0000.0,0011.24,0004.68,0003.14
2022-06-06 00:57:00,,0820.4,5.01,0.00,29.2,27.5,00.0,38.0,31.0,25.2,0000.0,0011.19,0004.68,0003.14
2022-06-06 00:58:00,,0820.3,5.00,0.00,29.2,27.6,00.0,38.0,31.1,27.4,0000.0,0011.53,0004.74,0003.18
2022-06-06 00:59:00,,0820.3,5.01,0.00,29.2,27.7,00.0,38.0,31.1,25.9,0000.0,0012.12,0004.83,0003.20
